Simultaneous Nadir Overpasses (SNOs) Predictions

Prediction of SNOs between AQUA and METOP-A Satellite Orbit:

Table of predicted SNOs for the next 14.0 days since TLE Epoch: 8/16/2019
Index Date (AQUA) Time (AQUA) Lat,Lon (AQUA) SZA (AQUA ) Date (METOP-A) Time (METOP-A) Lat,Lon (METOP-A) SZA (METOP-A ) Distance(km) Time Diff (sec)
1 08/17/2019 09:08:00 75.38, 33.52 62.11 08/17/2019 09:07:22 75.35, 33.54 62.09 3.30 38
2 08/17/2019 09:57:26 -75.41,-158.93 117.84 08/17/2019 09:58:03 -75.39,-159.01 117.87 3.22 37
3 08/20/2019 04:42:16 75.40, 99.89 63.04 08/20/2019 04:41:46 75.39, 100.01 63.03 3.80 30
4 08/20/2019 05:31:42 -75.43, -92.55 116.92 08/20/2019 05:32:27 -75.43, -92.53 116.93 0.76 45
5 08/23/2019 00:16:31 75.37, 166.40 63.94 08/23/2019 00:16:11 75.38, 166.34 63.95 1.70 20
6 08/23/2019 01:05:58 -75.45, -26.18 115.97 08/23/2019 01:06:52 -75.43, -26.19 116.00 2.85 54
7 08/25/2019 19:01:12 -75.08, 66.00 115.45 08/25/2019 19:00:02 -75.06, 64.43 115.38 44.81 70
8 08/25/2019 19:50:46 75.40,-127.23 64.92 08/25/2019 19:50:34 75.42,-127.19 64.94 2.65 12
9 08/25/2019 20:40:13 -75.48, 40.19 114.99 08/25/2019 20:41:15 -75.47, 40.29 115.01 2.84 62
10 08/28/2019 14:35:33 -75.35, 131.69 114.18 08/28/2019 14:34:21 -75.34, 131.60 114.17 3.17 72
11 08/28/2019 15:25:02 75.42, -60.86 65.92 08/28/2019 15:24:59 75.41, -60.86 65.91 1.32 3




NCC Satellite Simultaneous Nadir Overpasses (SNOs) Prediction Service
